TimeEST,TemperatureF,Dew PointF,Humidity,Sea Level PressureIn,VisibilityMPH,Wind Direction,Wind SpeedMPH,Gust SpeedMPH,PrecipitationIn,Events,Conditions,WindDirDegrees,DateUTC
12:13 AM,30.2,30.2,100,30.15,7.0,SW,4.6,-,N/A,,Overcast,220,2011-12-18 05:13:00
12:33 AM,30.2,30.2,100,30.15,7.0,SW,8.1,-,N/A,,Overcast,230,2011-12-18 05:33:00
1:14 AM,30.2,30.2,100,30.14,7.0,WSW,9.2,-,N/A,,Overcast,240,2011-12-18 06:14:00
1:34 AM,30.2,30.2,100,30.15,7.0,WSW,9.2,-,N/A,,Overcast,240,2011-12-18 06:34:00
1:54 AM,30.2,30.2,100,30.14,7.0,SW,8.1,-,N/A,,Overcast,230,2011-12-18 06:54:00
2:14 AM,30.2,30.2,100,30.13,7.0,SW,6.9,-,N/A,,Overcast,230,2011-12-18 07:14:00
2:34 AM,32.0,30.2,93,30.14,7.0,SW,8.1,-,N/A,,Overcast,230,2011-12-18 07:34:00
2:54 AM,32.0,30.2,93,30.14,7.0,SW,6.9,-,N/A,,Overcast,230,2011-12-18 07:54:00
3:14 AM,32.0,32.0,100,30.14,7.0,WSW,8.1,-,N/A,,Overcast,240,2011-12-18 08:14:00
3:55 AM,32.0,32.0,100,30.15,5.0,WSW,9.2,-,N/A,,Overcast,240,2011-12-18 08:55:00
4:15 AM,32.0,32.0,100,30.14,5.0,WSW,9.2,-,N/A,,Overcast,240,2011-12-18 09:15:00
4:35 AM,32.0,32.0,100,30.14,5.0,WSW,9.2,-,N/A,,Overcast,250,2011-12-18 09:35:00
4:55 AM,32.0,32.0,100,30.15,5.0,WSW,9.2,-,N/A,,Overcast,250,2011-12-18 09:55:00
5:10 AM,32.0,32.0,100,30.14,5.0,WSW,8.1,-,N/A,,Overcast,250,2011-12-18 10:10:00
5:30 AM,32.0,32.0,100,30.14,7.0,WSW,5.8,-,N/A,,Overcast,250,2011-12-18 10:30:00
5:50 AM,32.0,32.0,100,30.14,7.0,WSW,8.1,-,N/A,,Overcast,250,2011-12-18 10:50:00
6:11 AM,33.8,32.0,93,30.15,5.0,WSW,5.8,-,N/A,,Overcast,250,2011-12-18 11:11:00
6:31 AM,33.8,32.0,93,30.16,7.0,WSW,8.1,-,N/A,,Overcast,250,2011-12-18 11:31:00
6:51 AM,33.8,32.0,93,30.16,7.0,WSW,6.9,-,N/A,,Overcast,250,2011-12-18 11:51:00
7:11 AM,33.8,32.0,93,30.17,7.0,WSW,6.9,-,N/A,,Overcast,250,2011-12-18 12:11:00
7:31 AM,33.8,32.0,93,30.17,7.0,WSW,6.9,-,N/A,,Overcast,240,2011-12-18 12:31:00
7:51 AM,33.8,32.0,93,30.18,7.0,WSW,5.8,-,N/A,,Overcast,240,2011-12-18 12:51:00
8:11 AM,33.8,32.0,93,30.19,7.0,WSW,5.8,-,N/A,,Overcast,250,2011-12-18 13:11:00
8:51 AM,33.8,32.0,93,30.20,5.0,WSW,5.8,-,N/A,,Overcast,240,2011-12-18 13:51:00
9:11 AM,33.8,32.0,93,30.20,5.0,WSW,5.8,-,N/A,,Overcast,240,2011-12-18 14:11:00
9:31 AM,33.8,32.0,93,30.21,5.0,SW,5.8,-,N/A,,Overcast,230,2011-12-18 14:31:00
9:52 AM,33.8,32.0,93,30.21,5.0,WSW,8.1,-,N/A,,Overcast,240,2011-12-18 14:52:00
10:12 AM,33.8,32.0,93,30.20,5.0,WSW,6.9,-,N/A,,Overcast,240,2011-12-18 15:12:00
10:32 AM,33.8,32.0,93,30.21,5.0,WSW,6.9,-,N/A,,Overcast,240,2011-12-18 15:32:00
11:12 AM,35.6,32.0,87,30.22,5.0,WSW,9.2,-,N/A,,Overcast,240,2011-12-18 16:12:00
11:32 AM,35.6,32.0,87,30.20,5.0,SW,8.1,-,N/A,,Overcast,230,2011-12-18 16:32:00
11:52 AM,35.6,32.0,87,30.20,7.0,SW,6.9,-,N/A,,Overcast,230,2011-12-18 16:52:00
12:12 PM,35.6,30.2,81,30.20,7.0,WSW,8.1,-,N/A,,Overcast,240,2011-12-18 17:12:00
12:32 PM,35.6,30.2,81,30.19,7.0,WSW,8.1,-,N/A,,Overcast,240,2011-12-18 17:32:00
1:13 PM,37.4,28.4,70,30.19,10.0,WSW,11.5,-,N/A,,Overcast,250,2011-12-18 18:13:00
1:33 PM,37.4,28.4,70,30.18,7.0,SW,9.2,-,N/A,,Overcast,230,2011-12-18 18:33:00
2:13 PM,37.4,28.4,70,30.17,10.0,WSW,12.7,-,N/A,,Mostly Cloudy,240,2011-12-18 19:13:00
2:33 PM,37.4,30.2,75,30.16,7.0,SW,15.0,-,N/A,,Mostly Cloudy,220,2011-12-18 19:33:00
2:54 PM,37.4,30.2,75,30.15,7.0,SW,15.0,-,N/A,,Overcast,230,2011-12-18 19:54:00
3:14 PM,37.4,30.2,75,30.15,7.0,SW,9.2,-,N/A,,Mostly Cloudy,220,2011-12-18 20:14:00
3:34 PM,37.4,30.2,75,30.14,7.0,SW,11.5,-,N/A,,Mostly Cloudy,220,2011-12-18 20:34:00
3:54 PM,37.4,30.2,75,30.13,7.0,SW,12.7,-,N/A,,Scattered Clouds,230,2011-12-18 20:54:00
4:14 PM,37.4,30.2,75,30.13,7.0,SW,6.9,-,N/A,,Clear,220,2011-12-18 21:14:00
4:35 PM,37.4,28.4,70,30.12,7.0,SSW,8.1,-,N/A,,Clear,200,2011-12-18 21:35:00
4:55 PM,37.4,30.2,75,30.12,7.0,SSW,6.9,-,N/A,,Clear,200,2011-12-18 21:55:00
5:15 PM,37.4,30.2,75,30.11,7.0,SSW,10.4,-,N/A,,Clear,200,2011-12-18 22:15:00
5:35 PM,35.6,30.2,81,30.11,7.0,SSW,6.9,-,N/A,,Clear,200,2011-12-18 22:35:00
6:15 PM,35.6,30.2,81,30.10,7.0,SSW,6.9,-,N/A,,Clear,200,2011-12-18 23:15:00
6:50 PM,35.6,32.0,87,30.10,7.0,South,8.1,-,N/A,,Clear,190,2011-12-18 23:50:00
7:10 PM,35.6,32.0,87,30.10,7.0,SSW,8.1,-,N/A,,Clear,210,2011-12-19 00:10:00
7:30 PM,35.6,32.0,87,30.10,7.0,SSW,6.9,-,N/A,,Clear,200,2011-12-19 00:30:00
7:50 PM,35.6,30.2,81,30.09,7.0,SSW,6.9,-,N/A,,Clear,210,2011-12-19 00:50:00
8:11 PM,35.6,30.2,81,30.08,7.0,SSW,4.6,-,N/A,,Clear,200,2011-12-19 01:11:00
8:31 PM,33.8,30.2,87,30.07,7.0,South,5.8,-,N/A,,Clear,190,2011-12-19 01:31:00
8:51 PM,33.8,30.2,87,30.06,7.0,South,5.8,-,N/A,,Clear,190,2011-12-19 01:51:00
9:11 PM,33.8,30.2,87,30.05,7.0,South,6.9,-,N/A,,Clear,190,2011-12-19 02:11:00
9:31 PM,33.8,30.2,87,30.04,7.0,South,6.9,-,N/A,,Clear,190,2011-12-19 02:31:00
9:51 PM,33.8,30.2,87,30.03,7.0,South,6.9,-,N/A,,Clear,180,2011-12-19 02:51:00
10:11 PM,35.6,30.2,81,30.02,10.0,South,8.1,-,N/A,,Clear,190,2011-12-19 03:11:00
10:31 PM,35.6,30.2,81,30.02,10.0,SSW,9.2,-,N/A,,Clear,200,2011-12-19 03:31:00
10:51 PM,35.6,30.2,81,30.01,10.0,South,9.2,-,N/A,,Clear,190,2011-12-19 03:51:00
11:11 PM,35.6,30.2,81,30.00,10.0,South,8.1,-,N/A,,Clear,190,2011-12-19 04:11:00
11:31 PM,37.4,30.2,75,29.99,10.0,SSW,9.2,-,N/A,,Clear,200,2011-12-19 04:31:00
11:52 PM,37.4,30.2,75,29.98,10.0,SSW,9.2,-,N/A,,Clear,200,2011-12-19 04:52:00